Home   Weather   Breckenridge   Past weeks

Flag for USA Past Weather in Breckenridge, Colorado, USA — Yesterday and Last 2 Weeks

Now
23 °F

Light snow. Overcast.


Feels Like: N/A
Forecast: 26 / 37 °F
Wind: N/A

Location: Copper Mountain - Red Cliff Pass

Current Time: Jan 23, 2017 at 10:24:58 am

Latest Report: Jan 23, 2017 at 8:58 am


Visibility: 0 mi

Pressure: 29.67 "Hg (20.45 "Hg at 2921m altitude)

Humidity: 68%

Dew Point: 14 °F

Location of BreckenridgeLocation

Past Weather in Breckenridge — Graph

°F

Breckenridge Temperature Yesterday

Maximum temperature yesterday: 27 °F (at 11:55 pm)
Minimum temperature yesterday: 9 °F (at 7:52 am)
Average temperature yesterday: 17 °F

High & Low Weather Summary for the Past Weeks

 TemperatureHumidityPressure
High34 °F (Jan 15, 11:13 am)86% (Jan 16, 5:55 am)30.36 "Hg (Jan 16, 5:55 am)
Low9 °F (Jan 22, 7:52 am)3% (Jan 18, 2:15 am)29.32 "Hg (Jan 21, 7:35 am)
Average23 °F69%29.92 "Hg
* Reported Jan 8 8:15 am — Jan 23 8:55 am, Breckenridge, Weather by CustomWeather, © 2017

Note: Actual official high and low records may vary slightly from our data, if they occured in-between our weather recording intervals... More about our weather records

Advertising

Breckenridge Weather History for the Previous 24 Hours

Scroll right to see more
 ConditionsComfort  
Time TempWeatherWind HumidityBarometerVisibility
8:55 am
Mon, Jan 23
23 °FLight snow. Overcast.N/A68%29.68 "Hg1 mi
8:35 am23 °FHeavy snow. Mostly cloudy.N/A68%29.67 "Hg0 mi
7:55 am23 °FSnow. Low clouds.N/A74%29.68 "Hg0 mi
7:15 am23 °FLight snow. Mostly cloudy.N/A68%29.69 "Hg1 mi
6:55 am23 °FSnow. Mostly cloudy.N/A68%29.68 "Hg1 mi
6:15 am23 °FSnow. Low clouds.N/A74%29.69 "Hg1 mi
5:54 am23 °FHeavy snow. Low clouds.N/A74%29.68 "Hg0 mi
5:15 am23 °FHeavy snow. Low clouds.N/A74%29.70 "Hg1 mi
4:53 am23 °FHeavy snow. Low clouds.N/A74%29.70 "Hg0 mi
4:15 am23 °FHeavy snow. Low clouds.N/A74%29.70 "Hg0 mi
3:55 am23 °FHeavy snow. Mostly cloudy.N/A74%29.72 "Hg0 mi
3:15 am23 °FLight snow. Mostly cloudy.N/A80%29.73 "Hg1 mi
2:35 am23 °FLight snow. Overcast.N/A80%29.75 "Hg1 mi
1:55 am27 °FLight snow. Overcast.24 mph69%29.75 "Hg2 mi
1:15 am27 °FLight snow. Partly cloudy.22 mph69%29.77 "Hg1 mi
12:35 am27 °FLight snow. Mostly cloudy.23 mph69%29.78 "Hg1 mi
11:55 pm
Sun, Jan 22
27 °FSnow. Mostly cloudy.22 mph74%29.80 "Hg1 mi
11:15 pm25 °FSnow. Low clouds.26 mph74%29.84 "Hg1 mi
10:55 pm25 °FSnow. Low clouds.N/A80%29.83 "Hg1 mi
10:15 pm23 °FLight snow. Overcast.21 mph80%29.82 "Hg2 mi
9:55 pm23 °FLight snow. Low clouds.22 mph80%29.82 "Hg1 mi
9:15 pm21 °FLight snow. Low clouds.N/A74%29.83 "Hg1 mi
8:54 pm19 °FLight snow. Overcast.N/A79%29.84 "Hg2 mi
8:15 pm19 °FLight snow. Mostly cloudy.N/A79%29.88 "Hg1 mi
7:55 pm18 °FLight snow. Overcast.N/A73%29.89 "Hg2 mi
7:15 pm18 °FLight snow. Low clouds.N/A73%29.89 "Hg2 mi
6:55 pm18 °FLight snow. Overcast.N/A68%29.89 "Hg2 mi
6:15 pm18 °FMostly cloudy.N/A45%29.90 "Hg10 mi
5:55 pm18 °FMostly cloudy.N/A45%29.92 "Hg10 mi
5:34 pm18 °FMostly cloudy.N/A45%29.91 "Hg10 mi
4:54 pm18 °FCloudy.N/A45%29.90 "Hg10 mi
4:15 pm18 °FScattered clouds.N/A45%29.89 "Hg10 mi
3:54 pm18 °FScattered clouds.N/A45%29.92 "Hg10 mi
3:35 pm18 °FPartly sunny.N/A45%29.91 "Hg10 mi
2:12 pm14 °FScattered clouds.N/A62%29.92 "Hg10 mi
1:02 pm14 °FSunny.N/A79%29.93 "Hg10 mi
11:12 am14 °FMostly cloudy.N/A79%29.95 "HgN/A
10:03 am10 °FBroken clouds.N/A72%29.94 "HgN/A
Weather by CustomWeather, © 2017

See weather overviewHow to use our weather pages